{"data":{"norad_id":53158,"intl_designator":"2022-083AC","name":"STARLINK-4054","alt_names":[],"object_type":"PAYLOAD","status":"ACTIVE","operator":null,"country":"US","launch_date":"2022-07-17","launch_site_code":"AFETR","launch_vehicle":null,"mission":null,"orbit_class":"UNKNOWN","rcs_meters":null,"size_class":null,"mass_kg":null,"dimensions":null,"purposes":["comms"],"wikipedia_slug":null,"has_3d_model":false,"image_url":null,"decayed_at":null,"tle_current":{"epoch":"2026-05-24T20:05:12.077376Z","epoch_age_seconds":89254,"freshness":"FRESH","line1":"1 53158U 22083AC  26144.83694534  .00000985  00000+0  79963-4 0  9995","line2":"2 53158  53.2143 182.2807 0001110  81.3653 278.7465 15.08843826212851","mean_motion":15.08843826,"eccentricity":0.000111,"inclination_deg":53.2143,"raan_deg":182.2807,"arg_perigee_deg":81.3653,"mean_anomaly_deg":278.7465,"bstar":7.9963e-5,"rev_number":21285,"period_min":95.437312675195,"perigee_km":538.96381101235,"apogee_km":540.49957786251,"semimajor_km":6917.8686944374,"source":"CELESTRAK","updated_at":"2026-05-25T13:38:17.320784Z"}}}